Location: ?????
(31.8092°N, 35.2590°E)
Time: 17:05:32
(UTC+00:00)

Cosmos 2173 Rocket - Pass Details

Date: 20 June 2021
Orbit: 945 x 1000 km, 83.0° (Epoch: 03 August)

Event Time Altitude Azimuth Distance (km) Brightness Sun altitude
Rises 18:27:33 0° 360° (N) 3,727 7.7 -18.0°
Reaches altitude 10° 18:30:10 10° 5° (N) 2,775 6.9 -18.4°
Maximum altitude 18:36:24 54° 82° (E) 1,195 4.2 -19.3°
Enters shadow 18:39:00 34° 141° (SE) 1,586 4.5 -19.7°
